SCP
0 0 0 0 0 0 0 0 0 -0 0 -0 -0 -0 -0 -0 -0 -0 -0 -0 -0 -0 -0 0 0 0 0 0 0 0 0 0 0 0 0 0 0 0 0 0 0 0 0 0 0 0 0
0 0 0 0 0 0 0 0 0 0 0 0 -0 -0 -0 -0 -0 -0 -0 -0 -0 -0 -0 -0 0 0 0 0 0 0 0 0 0 0 0 0 0 0 0 0 0 0 0 0 0 0 0
0 0 0 0 0 0 0 -0 0 0 0 0 0 -0 -0 -0 -0 -0 -0 -0 -0 -0 -0 0 0 0 0 0 0 0 0 0 0 0 0 0 0 0 0 0 0 0 0 0 0 0 0
0 0 0 0 0 0 0 0 -0 -0 -0 -0 0 -0 -0 -0 -0 -0 -0 -0 -0 -0 -0 -0 0 0 0 0 0 0 0 0 0 0 0 0 0 0 0 0 0 0 0 0 0 0 0
0 0 0 0 0 0 0 0 -0 -0 -0 -0 -0 -0 -0 -0 -0 -0 -0 -0 0 0 0 0 0 0 0 0 0 0 0 0 0 0 0 0 0 0 0 0 0 0 0 0 0 0 0
0 0 0 0 0 0 0 0 0 0 -0 -0 -0 -0 -0 -0 -0 -0 -0 0 0 0 0 0 0 0 0 0 0 0 0 0 0 0 0 0 0 0 0 0 0 0 0 0 0 0 0
0 0 0 0 0 0 0 0 0 0 0 -0 0 -0 -0 -0 0 0 0 0 0 0 0 0 0 0 0 0 0 0 0 0 0 0 0 0 0 0 0 0 0 0 0 0 0 0 0
0 0 0 0 0 0 0 0 0 0 0 -0 -0 -0 -0 -0 0 0 0 0 0 0 0 0 0 -0 0 0 0 0 0 0 0 0 0 0 0 0 0 0 0 0 0 0 0 0 0
0 0 0 0 0 0 0 0 0 0 0 -0 -0 -0 -0 -0 0 0 0 0 0 0 0 0 0 0 0 0 0 0 0 0 0 0 0 0 0 0 0 0 0 0 0 0 0 0 0
0 0 -0 -0 0 0 0 0 0 0 -0 -0 -0 -0 0 -0 0 0 0 0 0 0 0 0 0 0 0 0 0 0 0 0 0 0 0 0 0 0 0 0 0 0 0 0 0 0 0
0 -0 -0 -0 -0 -0 -0 -0 0 -0 -0 -0 -0 -0 0 -0 0 0 0 0 0 0 0 0 0 0 0 0 0 0 0 0 0 0 0 0 0 0 0 0 0 0 0 0 0 0 0
0 -0 0 0 0 0 -0 -0 -0 -0 -0 -0 -0 -0 -0 -0 0 -0 0 0 0 0 0 0 0 0 0 0 0 0 0 0 0 0 0 0 0 0 0 0 0 0 0 0 0 0 0
0 0 0 0 0 0 0 -0 0 0 -0 -0 -0 -0 0 0 0 0 0 0 0 0 0 0 0 0 0 0 0 0 0 0 0 0 0 0 0 0 0 0 0 0 0 0 0 0 0
0 0 0 0 0 0 0 0 0 -0 0 -0 -0 -0 0 0 -0 -0 0 0 0 0 0 0 0 0 0 0 0 0 0 0 0 0 0 0 0 0 0 0 0 0 0 0 0 0 0
0 0 0 0 0 0 0 0 0 0 -0 -0 -0 0 0 0 -0 -0 0 0 0 0 0 0 0 0 0 0 0 0 0 0 0 0 0 0 0 0 0 0 0 0 0 0 0 0 0
0 0 0 0 0 0 0 0 -0 -0 -0 -0 0 0 0 0 0 0 0 0 0 0 0 0 0 0 0 0 0 0 0 0 0 0 0 0 0 0 0 0 0 0 0 0 0 0 0
0 0 0 0 0 0 0 0 -0 0 -0 0 0 0 0 0 0 0 0 0 0 0 0 0 0 0 0 0 0 0 0 0 0 0 0 0 0 0 0 0 0 0 0 0 0 0 0
0 0 0 0 0 0 0 0 0 -0 0 0 0 0 0 0 0 0 0 0 0 0 0 0 0 0 0 0 0 0 0 0 0 0 0 0 0 0 0 0 0 0 0 0 0 0 0
0 0 0 0 0 0 0 0 0 0 0 0 0 0 0 0 0 0 0 0 0 0 0 0 0 0 0 0 0 0 0 0 0 0 0 0 0 0 0 0 0 0 0 0 0 0 0
0 0 0 0 0 0 0 0 0 0 0 0 0 0 0 0 0 0 0 0 0 0 0 0 0 0 0 0 0 0 0 0 0 0 0 0 0 0 0 0 0 0 0 0 0 0 0
0 0 0 0 0 0 0 0 0 0 0 0 0 0 0 0 0 0 0 0 0 0 0 0 0 0 0 0 0 0 0 0 0 0 0 0 0 0 0 0 0 0 0 0 0 0 0
0 0 0 0 0 0 0 0 0 0 0 0 0 0 0 0 0 0 0 0 0 0 0 0 0 0 0 0 0 0 0 0 0 0 0 0 0 0 0 0 0 0 0 0 0 0 0
0 0 0 0 0 0 0 0 0 0 0 0 0 0 0 0 0 0 0 0 0 0 0 0 0 0 0 0 0 0 0 0 0 0 0 0 0 0 0 0 0 0 0 0 0 0 0
0 0 0 0 0 0 0 0 0 0 0 0 0 0 0 0 0 0 0 0 0 0 0 0 0 0 0 0 0 0 0 0 0 0 0 0 0 0 0 0 0 0 0 0 0 0 0
0 0 0 0 0 0 0 0 0 0 0 0 0 0 0 0 0 0 0 0 0 0 0 0 0 0 0 0 0 0 0 0 0 0 0 0 0 0 0 0 0 0 0 0 0 0 0
0 0 0 0 0 0 0 0 0 0 0 0 0 0 0 0 0 0 0 0 0 0 0 0 0 0 0 0 0 0 0 0 0 0 0 0 0 0 0 0 0 0 0 0 0 0 0
0 0 0 0 0 0 0 0 0 0 0 0 0 0 0 0 0 0 0 0 0 0 0 0 0 0 0 0 0 0 0 0 0 0 0 0 0 0 0 0 0 0 0 0 0 0 0
0 0 0 0 0 0 0 0 0 0 0 0 0 0 0 0 0 0 0 0 0 0 0 0 0 0 0 0 0 0 0 0 0 0 0 0 0 0 0 0 0 0 0 0 0 0 0
0 0 0 0 0 0 0 0 0 0 0 0 0 0 0 0 0 0 0 0 0 -0 0 0 0 0 0 0 0 0 0 0 0 0 0 0 0 0 0 0 0 0 0 0 0 0 0
Wind_Speed_500mb
37 39 41 43 44 46 47 49 50 52 54 55 58 53 44 34 26 22 19 17 17 14 11 7 6 6 7 7 6 10 14 16 20 20 20 23 25 12 9 8 13 11 7 11 21 21 27
37 38 40 41 44 45 46 47 47 50 53 56 58 56 48 38 28 23 19 16 16 17 14 10 7 6 6 7 14 15 12 10 17 29 28 25 14 11 12 7 8 12 6 8 15 23 17
37 37 37 38 39 41 42 43 45 46 49 52 56 58 54 45 33 26 23 17 16 18 16 12 9 9 14 12 17 21 19 14 23 25 20 12 10 6 15 11 6 5 8 9 25 15 15
36 37 37 38 38 38 38 39 40 41 42 48 55 60 59 51 40 30 23 21 22 20 18 13 9 9 11 13 24 25 24 22 25 21 15 5 6 4 2 13 6 6 6 8 3 7 5
37 37 38 37 38 39 38 37 35 34 36 41 49 59 63 57 45 31 29 26 25 16 15 12 9 8 10 11 27 29 24 24 25 16 10 7 4 5 5 4 4 5 8 4 10 6 8
40 39 40 40 39 40 40 39 37 34 35 40 48 58 62 62 54 34 23 26 24 16 10 10 15 9 7 5 16 28 30 23 17 15 11 9 6 7 5 10 8 9 7 6 14 4 13
43 44 42 42 42 40 39 40 42 42 42 45 51 58 61 60 58 37 16 15 12 7 10 16 9 8 12 3 10 15 35 31 15 4 14 4 11 22 26 19 8 8 11 18 23 26 10
42 43 44 43 44 44 45 45 43 45 49 50 52 53 56 57 58 30 14 8 6 16 19 33 38 44 32 12 1 13 25 21 13 18 9 7 22 24 16 15 15 14 18 22 23 22 14
48 46 43 44 45 45 45 47 47 47 50 54 54 54 54 54 45 20 10 7 6 18 9 13 11 12 21 38 14 15 31 22 14 15 18 22 6 17 17 17 18 20 20 21 22 18 16
47 50 52 50 48 48 46 46 49 51 55 56 56 53 56 54 24 30 9 14 9 10 5 6 6 6 17 18 11 31 37 24 9 25 15 17 26 24 16 21 21 25 21 26 21 16 21
47 51 51 51 53 50 48 48 52 56 56 59 59 57 54 49 44 22 9 7 8 0 3 3 6 10 18 19 10 13 39 24 21 14 13 8 10 13 16 17 24 17 9 17 21 22 16
44 47 50 51 52 52 50 50 54 60 63 64 65 58 54 43 33 7 18 5 8 3 4 5 9 6 7 8 1 10 17 10 9 12 15 21 6 8 14 4 19 4 9 8 4 10 25
47 48 49 48 51 48 46 50 57 64 65 72 73 57 38 30 5 18 14 13 4 6 8 9 8 5 8 5 10 6 13 19 19 11 20 23 33 22 19 26 13 12 13 13 14 16 25
45 46 45 45 48 44 45 51 60 64 72 82 66 26 15 7 17 22 14 4 6 4 7 11 18 13 1 4 7 7 4 10 13 17 16 12 17 9 10 24 19 17 20 15 18 23 32
40 41 44 43 45 44 47 52 58 65 75 85 34 35 36 12 19 18 8 4 1 1 4 12 15 4 8 5 2 3 9 6 3 14 14 11 10 3 5 3 4 11 14 2 13 11 21
37 35 39 44 45 45 48 52 57 61 70 79 32 12 41 17 12 8 3 2 3 6 8 9 6 14 11 2 10 9 4 7 3 6 8 7 11 3 4 5 11 6 15 6 3 15 32
37 35 32 39 43 44 45 48 54 59 64 72 24 7 31 1 7 7 1 3 5 14 14 5 9 5 15 22 20 9 5 2 6 1 5 1 9 10 3 12 22 8 8 3 2 5 12
37 35 36 35 36 40 37 40 49 54 65 67 24 3 29 2 5 5 4 10 16 6 10 4 2 6 14 13 11 9 20 14 26 4 14 3 6 17 30 22 7 10 19 17 12 13 10
39 40 40 41 36 37 33 31 39 44 55 60 25 12 21 6 4 6 9 10 9 12 3 2 7 11 3 6 9 16 14 4 7 5 4 2 4 11 8 8 6 11 12 14 9 12 31
37 38 37 39 38 37 29 27 30 35 39 41 15 8 14 23 15 8 12 7 9 23 17 9 10 10 9 12 20 11 14 7 14 7 17 2 11 23 23 20 10 15 21 28 27 17 32
38 33 32 35 34 31 29 26 27 27 30 24 15 6 7 7 7 12 3 8 19 9 5 5 5 7 3 6 8 13 24 32 31 25 21 17 23 31 37 41 36 31 30 28 34 42 40
35 32 31 31 34 31 30 24 23 26 27 12 7 7 7 8 8 8 4 3 12 11 7 4 8 18 17 10 14 9 9 14 12 9 18 6 21 9 24 23 27 37 41 43 45 48 48
36 35 31 28 27 27 25 25 24 23 20 7 7 7 2 5 6 4 1 8 13 20 11 17 12 16 15 26 34 34 37 35 32 28 21 11 11 11 26 15 18 25 36 38 40 38 31
37 34 35 31 25 26 24 23 19 20 15 12 5 8 4 5 5 7 15 24 23 23 15 17 27 22 10 18 33 46 51 55 52 43 42 27 11 7 14 12 12 5 4 5 8 20 22
33 30 33 32 23 22 22 24 22 18 13 7 3 2 5 5 11 19 12 12 27 30 26 22 31 18 17 22 7 9 3 7 14 6 19 28 21 7 7 11 25 18 3 4 7 27 22
31 28 29 32 27 23 22 21 21 16 15 11 10 7 4 3 6 11 10 16 11 9 9 9 17 28 10 5 5 5 3 5 4 8 13 12 15 13 6 8 8 8 4 7 5 22 14
31 32 29 31 28 20 20 21 19 19 19 16 15 13 10 8 12 10 7 6 10 6 8 15 9 12 2 4 6 7 6 6 2 4 4 7 4 18 16 9 14 5 8 13 10 12 42
35 32 30 30 24 19 17 18 17 19 21 20 18 14 17 11 23 24 22 16 15 15 5 9 15 2 4 6 4 1 3 3 3 6 2 6 7 6 5 8 9 11 16 12 26 63 45
34 31 27 27 20 18 16 16 15 18 20 23 25 20 17 28 27 47 53 53 52 49 27 11 5 3 6 5 3 3 2 4 2 3 2 4 4 1 6 6 4 13 23 41 33 46 73
Wind_Direction_500mb
8 7 8 9 10 11 12 13 13 10 11 12 11 8 1 1 3 7 5 6 5 0 346 323 286 261 263 254 205 151 144 151 175 181 181 168 155 142 158 154 145 194 231 211 254 267 261
0 2 4 4 4 6 8 9 12 11 8 9 12 13 8 358 352 350 356 352 353 360 352 336 307 269 243 252 173 168 156 140 155 150 148 147 167 157 121 140 192 171 222 251 271 263 262
353 355 357 358 359 0 3 6 8 12 11 10 11 10 8 0 348 339 340 343 339 334 340 335 311 287 256 221 183 179 173 153 144 147 148 137 119 141 143 147 153 161 258 256 236 254 244
346 348 349 350 351 354 357 1 4 8 12 10 12 10 4 0 350 333 325 328 325 315 308 311 292 294 256 198 188 184 184 176 170 165 133 95 133 119 136 130 99 196 203 265 153 206 236
340 341 343 344 345 346 349 352 354 357 1 3 2 3 2 356 350 335 316 316 319 300 291 274 278 286 267 212 198 188 185 173 168 177 169 212 176 115 126 180 267 32 262 264 305 193 280
334 336 337 339 341 341 342 342 342 343 342 343 345 347 351 351 344 332 310 312 319 308 264 250 255 287 243 159 173 199 193 176 163 152 146 155 131 173 132 190 230 169 203 234 261 246 289
333 332 332 332 333 335 336 336 335 334 333 333 334 336 339 340 340 323 287 310 336 308 258 233 231 243 263 263 227 197 203 197 191 138 196 117 209 217 213 209 221 238 242 257 265 273 276
334 332 329 329 330 332 333 333 334 333 333 334 333 334 336 339 338 319 247 248 268 302 296 283 259 255 237 182 0 185 187 179 183 207 149 199 243 239 213 202 218 220 256 263 272 262 215
343 340 335 330 330 331 331 332 334 334 335 334 332 333 331 340 342 356 239 205 281 325 285 295 241 230 232 221 228 212 176 172 186 193 202 224 210 103 194 211 228 234 236 261 271 303 245
343 344 343 343 338 333 333 334 333 333 332 330 327 326 328 331 336 327 276 194 289 313 330 272 235 182 159 156 216 208 189 173 184 217 190 242 249 246 226 240 220 263 229 254 270 281 290
340 340 339 340 340 341 337 336 333 333 334 329 323 322 318 318 313 303 200 202 296 242 18 60 82 124 166 184 136 189 195 198 206 179 188 209 182 169 204 233 185 255 204 255 277 270 290
333 339 338 340 344 343 341 339 339 338 337 334 328 325 314 307 310 230 182 216 144 207 256 42 120 140 161 240 13 110 178 201 208 209 232 258 254 239 255 192 205 154 260 287 268 279 262
328 332 334 342 348 346 347 349 348 349 346 340 335 327 308 294 256 153 163 149 176 231 338 22 22 345 250 238 231 221 178 193 211 194 235 255 244 256 232 256 189 214 255 271 258 239 267
321 322 327 339 345 346 348 351 348 350 350 345 348 6 22 63 166 159 145 125 226 68 34 1 346 338 237 39 7 355 156 221 220 237 262 261 271 214 186 226 248 207 218 232 267 273 286
313 318 323 330 336 339 343 346 346 348 351 349 10 47 34 33 150 155 151 175 281 142 57 7 360 52 300 73 24 321 322 288 264 182 224 199 248 267 50 123 232 155 211 308 275 243 275
319 317 320 319 324 331 337 343 345 347 350 350 356 14 22 81 105 124 85 262 99 37 34 40 126 356 349 110 210 302 301 288 261 230 251 197 268 204 111 103 60 233 137 189 213 283 283
329 318 317 316 316 320 333 344 348 346 350 353 357 55 7 4 43 49 92 20 7 64 85 113 167 240 278 285 291 301 237 164 358 28 358 166 250 237 223 229 248 177 199 105 317 212 273
331 327 318 310 311 320 327 342 348 349 352 357 1 32 5 6 26 29 48 340 340 6 49 171 151 232 239 254 283 242 255 257 289 230 272 4 262 257 260 271 274 261 240 216 224 226 235
327 331 329 332 328 325 328 342 345 352 353 355 351 322 6 47 52 31 346 335 331 7 22 138 206 199 215 277 279 295 273 318 218 196 155 123 244 277 250 208 188 235 206 218 231 255 249
319 324 322 322 325 329 331 337 338 357 351 357 359 344 6 52 68 38 3 325 336 342 312 266 260 276 259 246 204 269 238 276 329 347 346 317 258 255 259 288 304 263 240 228 224 236 262
323 328 329 331 323 321 327 332 339 352 344 10 19 50 10 347 14 351 292 311 307 299 258 13 280 300 164 257 239 228 255 263 280 309 287 240 245 256 258 264 268 264 258 245 229 243 253
314 318 320 328 332 327 328 330 337 357 2 27 40 1 355 308 295 325 236 269 291 353 335 295 253 292 234 232 253 275 278 279 275 276 274 228 256 239 266 274 272 270 263 256 253 253 257
308 312 315 318 324 323 327 326 342 356 359 12 41 19 25 305 313 280 182 10 322 338 284 253 345 327 273 268 277 286 271 260 255 267 271 252 247 266 277 299 296 270 260 260 258 257 259
301 303 309 311 310 312 311 319 320 321 357 349 65 39 73 291 277 300 326 319 306 317 273 289 296 284 277 287 293 273 256 249 246 249 241 237 229 228 277 297 254 28 342 342 291 274 260
298 293 301 308 305 306 302 303 307 308 325 315 227 61 125 272 276 294 294 315 312 302 287 286 294 277 298 306 275 289 278 222 214 210 233 220 211 214 240 237 293 291 89 317 337 297 289
291 290 295 301 303 294 294 294 297 290 299 285 250 243 198 262 227 238 288 286 292 292 288 273 307 306 270 249 235 250 240 294 235 157 54 146 204 197 177 243 267 46 157 351 294 281 37
284 287 289 291 296 288 287 284 283 286 284 280 259 244 241 235 268 239 242 283 282 287 276 284 314 313 272 246 233 222 238 322 270 313 143 125 150 213 227 254 276 4 338 309 268 342 317
277 276 278 290 282 269 272 276 271 271 272 275 274 249 241 241 271 262 250 234 254 231 242 327 312 162 270 249 258 13 272 47 357 316 273 200 187 190 199 236 265 23 340 322 319 305 305
279 270 267 280 260 252 263 258 258 265 263 265 264 270 262 249 263 283 281 277 261 254 265 249 269 348 276 288 341 294 289 280 212 255 321 241 345 328 241 296 338 297 298 301 303 302 308
Wind_Speed_850mb
37 39 41 43 44 46 47 49 50 52 54 55 58 53 44 34 26 22 19 17 17 14 11 7 6 6 7 7 6 10 14 16 20 20 20 23 25 12 9 8 13 11 7 11 21 21 27
37 38 40 41 44 45 46 47 47 50 53 56 58 56 48 38 28 23 19 16 16 17 14 10 7 6 6 7 14 15 12 10 17 29 28 25 14 11 12 7 8 12 6 8 15 23 17
37 37 37 38 39 41 42 43 45 46 49 52 56 58 54 45 33 26 23 17 16 18 16 12 9 9 14 12 17 21 19 14 23 25 20 12 10 6 15 11 6 5 8 9 25 15 15
36 37 37 38 38 38 38 39 40 41 42 48 55 60 59 51 40 30 23 21 22 20 18 13 9 9 11 13 24 25 24 22 25 21 15 5 6 4 2 13 6 6 6 8 3 7 5
37 37 38 37 38 39 38 37 35 34 36 41 49 59 63 57 45 31 29 26 25 16 15 12 9 8 10 11 27 29 24 24 25 16 10 7 4 5 5 4 4 5 8 4 10 6 8
40 39 40 40 39 40 40 39 37 34 35 40 48 58 62 62 54 34 23 26 24 16 10 10 15 9 7 5 16 28 30 23 17 15 11 9 6 7 5 10 8 9 7 6 14 4 13
43 44 42 42 42 40 39 40 42 42 42 45 51 58 61 60 58 37 16 15 12 7 10 16 9 8 12 3 10 15 35 31 15 4 14 4 11 22 26 19 8 8 11 18 23 26 10
42 43 44 43 44 44 45 45 43 45 49 50 52 53 56 57 58 30 14 8 6 16 19 33 38 44 32 12 1 13 25 21 13 18 9 7 22 24 16 15 15 14 18 22 23 22 14
48 46 43 44 45 45 45 47 47 47 50 54 54 54 54 54 45 20 10 7 6 18 9 13 11 12 21 38 14 15 31 22 14 15 18 22 6 17 17 17 18 20 20 21 22 18 16
47 50 52 50 48 48 46 46 49 51 55 56 56 53 56 54 24 30 9 14 9 10 5 6 6 6 17 18 11 31 37 24 9 25 15 17 26 24 16 21 21 25 21 26 21 16 21
47 51 51 51 53 50 48 48 52 56 56 59 59 57 54 49 44 22 9 7 8 0 3 3 6 10 18 19 10 13 39 24 21 14 13 8 10 13 16 17 24 17 9 17 21 22 16
44 47 50 51 52 52 50 50 54 60 63 64 65 58 54 43 33 7 18 5 8 3 4 5 9 6 7 8 1 10 17 10 9 12 15 21 6 8 14 4 19 4 9 8 4 10 25
47 48 49 48 51 48 46 50 57 64 65 72 73 57 38 30 5 18 14 13 4 6 8 9 8 5 8 5 10 6 13 19 19 11 20 23 33 22 19 26 13 12 13 13 14 16 25
45 46 45 45 48 44 45 51 60 64 72 82 66 26 15 7 17 22 14 4 6 4 7 11 18 13 1 4 7 7 4 10 13 17 16 12 17 9 10 24 19 17 20 15 18 23 32
40 41 44 43 45 44 47 52 58 65 75 85 34 35 36 12 19 18 8 4 1 1 4 12 15 4 8 5 2 3 9 6 3 14 14 11 10 3 5 3 4 11 14 2 13 11 21
37 35 39 44 45 45 48 52 57 61 70 79 32 12 41 17 12 8 3 2 3 6 8 9 6 14 11 2 10 9 4 7 3 6 8 7 11 3 4 5 11 6 15 6 3 15 32
37 35 32 39 43 44 45 48 54 59 64 72 24 7 31 1 7 7 1 3 5 14 14 5 9 5 15 22 20 9 5 2 6 1 5 1 9 10 3 12 22 8 8 3 2 5 12
37 35 36 35 36 40 37 40 49 54 65 67 24 3 29 2 5 5 4 10 16 6 10 4 2 6 14 13 11 9 20 14 26 4 14 3 6 17 30 22 7 10 19 17 12 13 10
39 40 40 41 36 37 33 31 39 44 55 60 25 12 21 6 4 6 9 10 9 12 3 2 7 11 3 6 9 16 14 4 7 5 4 2 4 11 8 8 6 11 12 14 9 12 31
37 38 37 39 38 37 29 27 30 35 39 41 15 8 14 23 15 8 12 7 9 23 17 9 10 10 9 12 20 11 14 7 14 7 17 2 11 23 23 20 10 15 21 28 27 17 32
38 33 32 35 34 31 29 26 27 27 30 24 15 6 7 7 7 12 3 8 19 9 5 5 5 7 3 6 8 13 24 32 31 25 21 17 23 31 37 41 36 31 30 28 34 42 40
35 32 31 31 34 31 30 24 23 26 27 12 7 7 7 8 8 8 4 3 12 11 7 4 8 18 17 10 14 9 9 14 12 9 18 6 21 9 24 23 27 37 41 43 45 48 48
36 35 31 28 27 27 25 25 24 23 20 7 7 7 2 5 6 4 1 8 13 20 11 17 12 16 15 26 34 34 37 35 32 28 21 11 11 11 26 15 18 25 36 38 40 38 31
37 34 35 31 25 26 24 23 19 20 15 12 5 8 4 5 5 7 15 24 23 23 15 17 27 22 10 18 33 46 51 55 52 43 42 27 11 7 14 12 12 5 4 5 8 20 22
33 30 33 32 23 22 22 24 22 18 13 7 3 2 5 5 11 19 12 12 27 30 26 22 31 18 17 22 7 9 3 7 14 6 19 28 21 7 7 11 25 18 3 4 7 27 22
31 28 29 32 27 23 22 21 21 16 15 11 10 7 4 3 6 11 10 16 11 9 9 9 17 28 10 5 5 5 3 5 4 8 13 12 15 13 6 8 8 8 4 7 5 22 14
31 32 29 31 28 20 20 21 19 19 19 16 15 13 10 8 12 10 7 6 10 6 8 15 9 12 2 4 6 7 6 6 2 4 4 7 4 18 16 9 14 5 8 13 10 12 42
35 32 30 30 24 19 17 18 17 19 21 20 18 14 17 11 23 24 22 16 15 15 5 9 15 2 4 6 4 1 3 3 3 6 2 6 7 6 5 8 9 11 16 12 26 63 45
34 31 27 27 20 18 16 16 15 18 20 23 25 20 17 28 27 47 53 53 52 49 27 11 5 3 6 5 3 3 2 4 2 3 2 4 4 1 6 6 4 13 23 41 33 46 73
Wind_Direction_850mb
8 7 8 9 10 11 12 13 13 10 11 12 11 8 1 1 3 7 5 6 5 0 346 323 286 261 263 254 205 151 144 151 175 181 181 168 155 142 158 154 145 194 231 211 254 267 261
0 2 4 4 4 6 8 9 12 11 8 9 12 13 8 358 352 350 356 352 353 360 352 336 307 269 243 252 173 168 156 140 155 150 148 147 167 157 121 140 192 171 222 251 271 263 262
353 355 357 358 359 0 3 6 8 12 11 10 11 10 8 0 348 339 340 343 339 334 340 335 311 287 256 221 183 179 173 153 144 147 148 137 119 141 143 147 153 161 258 256 236 254 244
346 348 349 350 351 354 357 1 4 8 12 10 12 10 4 0 350 333 325 328 325 315 308 311 292 294 256 198 188 184 184 176 170 165 133 95 133 119 136 130 99 196 203 265 153 206 236
340 341 343 344 345 346 349 352 354 357 1 3 2 3 2 356 350 335 316 316 319 300 291 274 278 286 267 212 198 188 185 173 168 177 169 212 176 115 126 180 267 32 262 264 305 193 280
334 336 337 339 341 341 342 342 342 343 342 343 345 347 351 351 344 332 310 312 319 308 264 250 255 287 243 159 173 199 193 176 163 152 146 155 131 173 132 190 230 169 203 234 261 246 289
333 332 332 332 333 335 336 336 335 334 333 333 334 336 339 340 340 323 287 310 336 308 258 233 231 243 263 263 227 197 203 197 191 138 196 117 209 217 213 209 221 238 242 257 265 273 276
334 332 329 329 330 332 333 333 334 333 333 334 333 334 336 339 338 319 247 248 268 302 296 283 259 255 237 182 0 185 187 179 183 207 149 199 243 239 213 202 218 220 256 263 272 262 215
343 340 335 330 330 331 331 332 334 334 335 334 332 333 331 340 342 356 239 205 281 325 285 295 241 230 232 221 228 212 176 172 186 193 202 224 210 103 194 211 228 234 236 261 271 303 245
343 344 343 343 338 333 333 334 333 333 332 330 327 326 328 331 336 327 276 194 289 313 330 272 235 182 159 156 216 208 189 173 184 217 190 242 249 246 226 240 220 263 229 254 270 281 290
340 340 339 340 340 341 337 336 333 333 334 329 323 322 318 318 313 303 200 202 296 242 18 60 82 124 166 184 136 189 195 198 206 179 188 209 182 169 204 233 185 255 204 255 277 270 290
333 339 338 340 344 343 341 339 339 338 337 334 328 325 314 307 310 230 182 216 144 207 256 42 120 140 161 240 13 110 178 201 208 209 232 258 254 239 255 192 205 154 260 287 268 279 262
328 332 334 342 348 346 347 349 348 349 346 340 335 327 308 294 256 153 163 149 176 231 338 22 22 345 250 238 231 221 178 193 211 194 235 255 244 256 232 256 189 214 255 271 258 239 267
321 322 327 339 345 346 348 351 348 350 350 345 348 6 22 63 166 159 145 125 226 68 34 1 346 338 237 39 7 355 156 221 220 237 262 261 271 214 186 226 248 207 218 232 267 273 286
313 318 323 330 336 339 343 346 346 348 351 349 10 47 34 33 150 155 151 175 281 142 57 7 360 52 300 73 24 321 322 288 264 182 224 199 248 267 50 123 232 155 211 308 275 243 275
319 317 320 319 324 331 337 343 345 347 350 350 356 14 22 81 105 124 85 262 99 37 34 40 126 356 349 110 210 302 301 288 261 230 251 197 268 204 111 103 60 233 137 189 213 283 283
329 318 317 316 316 320 333 344 348 346 350 353 357 55 7 4 43 49 92 20 7 64 85 113 167 240 278 285 291 301 237 164 358 28 358 166 250 237 223 229 248 177 199 105 317 212 273
331 327 318 310 311 320 327 342 348 349 352 357 1 32 5 6 26 29 48 340 340 6 49 171 151 232 239 254 283 242 255 257 289 230 272 4 262 257 260 271 274 261 240 216 224 226 235
327 331 329 332 328 325 328 342 345 352 353 355 351 322 6 47 52 31 346 335 331 7 22 138 206 199 215 277 279 295 273 318 218 196 155 123 244 277 250 208 188 235 206 218 231 255 249
319 324 322 322 325 329 331 337 338 357 351 357 359 344 6 52 68 38 3 325 336 342 312 266 260 276 259 246 204 269 238 276 329 347 346 317 258 255 259 288 304 263 240 228 224 236 262
323 328 329 331 323 321 327 332 339 352 344 10 19 50 10 347 14 351 292 311 307 299 258 13 280 300 164 257 239 228 255 263 280 309 287 240 245 256 258 264 268 264 258 245 229 243 253
314 318 320 328 332 327 328 330 337 357 2 27 40 1 355 308 295 325 236 269 291 353 335 295 253 292 234 232 253 275 278 279 275 276 274 228 256 239 266 274 272 270 263 256 253 253 257
308 312 315 318 324 323 327 326 342 356 359 12 41 19 25 305 313 280 182 10 322 338 284 253 345 327 273 268 277 286 271 260 255 267 271 252 247 266 277 299 296 270 260 260 258 257 259
301 303 309 311 310 312 311 319 320 321 357 349 65 39 73 291 277 300 326 319 306 317 273 289 296 284 277 287 293 273 256 249 246 249 241 237 229 228 277 297 254 28 342 342 291 274 260
298 293 301 308 305 306 302 303 307 308 325 315 227 61 125 272 276 294 294 315 312 302 287 286 294 277 298 306 275 289 278 222 214 210 233 220 211 214 240 237 293 291 89 317 337 297 289
291 290 295 301 303 294 294 294 297 290 299 285 250 243 198 262 227 238 288 286 292 292 288 273 307 306 270 249 235 250 240 294 235 157 54 146 204 197 177 243 267 46 157 351 294 281 37
284 287 289 291 296 288 287 284 283 286 284 280 259 244 241 235 268 239 242 283 282 287 276 284 314 313 272 246 233 222 238 322 270 313 143 125 150 213 227 254 276 4 338 309 268 342 317
277 276 278 290 282 269 272 276 271 271 272 275 274 249 241 241 271 262 250 234 254 231 242 327 312 162 270 249 258 13 272 47 357 316 273 200 187 190 199 236 265 23 340 322 319 305 305
279 270 267 280 260 252 263 258 258 265 263 265 264 270 262 249 263 283 281 277 261 254 265 249 269 348 276 288 341 294 289 280 212 255 321 241 345 328 241 296 338 297 298 301 303 302 308